Home > Weather > Rhodes > Past weeks

Flag for Greece Past Weather in Rhodes, Rhodes, Greece — Yesterday and Last 2 Weeks

Now
70 °F

Passing clouds.


Feels Like: 70 °F
Forecast: 66 / 73 °F
Wind: 8 mph from West

Location: Rhodes Airport

Current Time: May 24, 2016 at 8:55:52 PM

Latest Report: May 24, 2016 at 8:20 PM


Visibility: N/A

Pressure: 29.86 "Hg

Humidity: 73%

Dew Point: 61 °F

Location of RhodesLocation

Past Weather in Rhodes — Graph

°F

Rhodes Temperature Yesterday

Maximum temperature yesterday: 75 °F (at 2:50 PM)
Minimum temperature yesterday: 64 °F (at 5:50 AM)
Average temperature yesterday: 69 °F

High & Low Weather Summary for the Past Weeks

 TemperatureHumidityPressure
High82 °F (May 12, 2:50 PM)100% (May 15, 11:50 PM)30.01 "Hg (May 15, 11:50 PM)
Low61 °F (May 16, 5:20 AM)39% (May 12, 12:50 PM)29.74 "Hg (May 22, 4:50 AM)
Average69 °F70%29.88 "Hg
* Reported May 9 7:20 PM — May 24 7:50 PM, Rhodes, Weather by CustomWeather, © 2016

Note: Actual official high and low records may vary slightly from our data, if they occured in-between our weather recording intervals... More about our weather records

Advertising

Rhodes Weather History for the Previous 24 Hours

Scroll right to see more
 ConditionsComfort  
Time TempWeatherWind HumidityBarometerVisibility
7:50 PM
Tue, May 24
70 °FPassing clouds.8 mph73%29.86 "HgN/A
7:20 PM70 °FPassing clouds.9 mph69%29.86 "HgN/A
6:50 PM70 °FPassing clouds.12 mph69%29.86 "HgN/A
6:20 PM72 °FPassing clouds.16 mph65%29.86 "HgN/A
5:50 PM72 °FPassing clouds.15 mph65%29.86 "HgN/A
5:20 PM72 °FSunny.14 mph65%29.86 "Hg10 mi
4:50 PM72 °FSunny.16 mph65%29.89 "Hg10 mi
4:20 PM72 °FSunny.17 mph65%29.89 "Hg10 mi
3:50 PM72 °FSunny.20 mph65%29.89 "Hg10 mi
3:20 PM73 °FSunny.17 mph57%29.89 "Hg10 mi
2:50 PM73 °FSunny.15 mph57%29.89 "Hg10 mi
2:20 PM75 °FSunny.17 mph54%29.89 "Hg10 mi
1:50 PM75 °FSunny.17 mph54%29.89 "Hg10 mi
1:20 PM73 °FSunny.15 mph57%29.89 "Hg10 mi
12:50 PM73 °FSunny.13 mph57%29.89 "Hg10 mi
12:20 PM73 °FSunny.14 mph57%29.89 "Hg10 mi
11:50 AM73 °FSunny.13 mph57%29.89 "Hg10 mi
11:20 AM72 °FSunny.13 mph61%29.89 "Hg10 mi
10:50 AM72 °FSunny.8 mph61%29.89 "Hg10 mi
10:20 AM72 °FSunny.12 mph65%29.89 "Hg10 mi
9:50 AM72 °FSunny.12 mph65%29.89 "Hg10 mi
9:20 AM70 °FSunny.9 mph60%29.89 "Hg10 mi
8:50 AM70 °FSunny.9 mph60%29.89 "Hg10 mi
8:20 AM70 °FSunny.8 mph60%29.89 "Hg10 mi
7:50 AM70 °FSunny.8 mph60%29.89 "Hg10 mi
7:20 AM68 °FSunny.9 mph64%29.86 "Hg10 mi
6:50 AM68 °FClear.9 mph64%29.86 "Hg10 mi
6:20 AM68 °FClear.9 mph64%29.86 "Hg10 mi
5:50 AM68 °FClear.9 mph64%29.86 "Hg10 mi
5:20 AM66 °FPassing clouds.8 mph78%29.86 "HgN/A
4:50 AM66 °FPassing clouds.8 mph78%29.86 "HgN/A
4:20 AM68 °FPassing clouds.9 mph64%29.86 "HgN/A
3:50 AM68 °FPassing clouds.9 mph64%29.86 "HgN/A
3:20 AM68 °FPassing clouds.12 mph69%29.86 "HgN/A
2:50 AM68 °FPassing clouds.12 mph69%29.86 "HgN/A
2:20 AM68 °FPassing clouds.8 mph69%29.86 "HgN/A
1:50 AM68 °FPassing clouds.8 mph69%29.86 "HgN/A
1:20 AM68 °FPassing clouds.8 mph69%29.86 "HgN/A
12:50 AM68 °FPassing clouds.8 mph69%29.86 "HgN/A
12:20 AM68 °FPassing clouds.7 mph64%29.86 "HgN/A
11:50 PM
Mon, May 23
68 °FPassing clouds.7 mph64%29.86 "HgN/A
11:20 PM68 °FPassing clouds.9 mph69%29.86 "HgN/A
10:50 PM68 °FPassing clouds.9 mph69%29.86 "HgN/A
10:20 PM70 °FPassing clouds.7 mph64%29.86 "HgN/A
9:50 PM70 °FPassing clouds.7 mph64%29.86 "HgN/A
9:20 PM70 °FPassing clouds.8 mph69%29.86 "HgN/A
8:50 PM70 °FPassing clouds.8 mph69%29.86 "HgN/A
8:20 PM72 °FPassing clouds.7 mph69%29.83 "HgN/A
Weather by CustomWeather, © 2016

See weather overviewHow to use our weather pages